Location: ?
(35.6016°N, 139.5755°E)
Time: 19:06:22
(UTC+00:00)

Daily predictions for brighter satellites

Satellite Brightness Start Highest point End
(mag) Time Altitude Azimuth Time Altitude Azimuth Time Altitude Azimuth
Resurs 01 Rocket 4.1 12:08:40 20° WNW 12:08:40 20° WNW 12:10:28 10° NW
ATLAS 2AS CENTAUR R/B 4.2 13:00:52 10° NNW 13:04:36 32° NNW 13:04:36 32° NNW
ADEOS II 4.4 16:54:05 10° NNE 16:55:36 20° NNE 16:55:36 20° NNE
Cosmos 2333 Rocket 3.8 17:15:17 10° N 17:20:13 30° ENE 17:25:09 10° ESE
IDEFIX/ARIANE 42P 4.1 17:23:40 10° NNE 17:27:37 32° E 17:27:37 32° E
USA 267 4.3 17:30:12 10° NNE 17:35:34 33° NNW 17:35:34 33° NNW
Cosmos 2219 4.0 17:59:38 42° SE 18:00:42 47° ESE 18:06:11 10° NNE
Cosmos 2297 Rocket 3.4 18:02:58 27° SSE 18:05:05 37° ESE 18:10:15 10° NE
USA 234 3.5 18:00:41 10° ESE 18:07:09 69° NE 18:13:39 10° NW
Cosmos 1703 Rocket 4.2 18:10:18 55° E 18:10:18 55° E 18:14:27 10° NNE
Timation 2 Rocket 4.0 18:12:07 65° W 18:12:33 67° WNW 18:19:24 10° NNE
BREEZE-M DEB (TANK) 3.2 18:15:46 46° ENE 18:15:46 46° ENE 18:17:35 10° NE
NOSS 3-2 (A) 4.3 18:14:03 28° SSE 18:16:15 40° ESE 18:21:51 10° NE
ASTRO E2 4.4 18:20:09 26° ESE 18:20:09 26° ESE 18:22:17 10° ESE
Geosat 4.1 18:16:01 10° NNE 18:20:40 63° NW 18:20:40 63° NW
STARLINK-1025 4.4 18:22:01 48° NNE 18:22:01 48° NNE 18:25:10 10° NE
SJ 16-02 3.5 18:25:34 15° NNW 18:25:34 15° NNW 18:26:39 10° NNW
COSMOS 2428 2.6 18:17:37 10° NNW 18:23:20 89° WSW 18:29:00 10° SSE
CBERS 1 LM4 rocket 4.5 18:20:03 10° NNE 18:24:55 74° ESE 18:26:06 51° S
STARLINK-1017 4.2 18:26:48 50° N 18:26:48 50° N 18:30:08 10° NE
Lacrosse 5 rocket 3.3 18:28:07 17° NNW 18:28:07 17° NNW 18:29:46 10° N
STARLINK-81 4.2 18:27:42 48° N 18:27:42 48° N 18:30:51 10° NE
SeaSat 1 3.6 18:22:54 10° SE 18:27:33 44° ENE 18:32:13 10° N
STARLINK-54 4.3 18:29:30 44° N 18:29:30 44° N 18:32:40 10° NE
Cosmos 2227 Rocket 2.7 18:27:05 26° S 18:30:03 55° ESE 18:35:33 10° NNE
STARLINK-77 4.2 18:30:53 48° N 18:30:53 48° N 18:34:09 10° NE
ARIANE 5 R/B 4.2 18:27:31 10° NNW 18:29:48 20° NW 18:29:48 20° NW
STARLINK-25 4.2 18:32:29 48° N 18:32:29 48° N 18:35:48 10° NE
GPS 2-04 Rocket1 3.0 18:33:50 57° ESE 18:33:50 57° ESE 18:36:53 10° E
STARLINK-71 4.3 18:34:17 43° NNW 18:34:17 43° NNW 18:37:36 10° NE
Cosmos 1908 Rocket 3.4 18:30:12 10° N 18:34:33 82° W 18:34:33 82° W
STARLINK-79 4.1 18:35:39 47° NNW 18:35:39 47° NNW 18:39:05 10° NE
STARLINK-78 4.1 18:37:16 46° NNW 18:37:16 46° NNW 18:40:45 10° NE
Cosmos 2219 Rocket 2.0 18:31:36 10° NNW 18:37:08 63° WSW 18:42:37 10° S
ADEOS II 4.2 18:35:48 10° NNW 18:36:34 12° NW 18:36:34 12° NW
STARLINK-57 4.2 18:38:59 43° NNW 18:38:59 43° NNW 18:42:29 10° NE
Cosmos 1689 Rocket 3.8 18:36:55 14° SE 18:39:11 34° ENE 18:41:57 10° N
STARLINK-49 4.1 18:40:25 44° NNW 18:40:25 44° NNW 18:44:00 10° NE
CZ-4B R/B 2.8 18:41:50 31° NNW 18:41:50 31° NNW 18:43:47 10° NNW
STARLINK-1048 4.1 18:41:08 45° NNW 18:41:08 45° NNW 18:44:59 10° NE
STARLINK-27 4.2 18:42:01 43° NNW 18:42:01 43° NNW 18:45:40 10° NE
NOSS 3-2 (C) 4.5 18:37:45 13° S 18:42:16 38° ESE 18:47:50 10° NE
Okean 1-7 2.9 18:42:42 67° WSW 18:42:54 68° W 18:47:15 10° N
STARLINK-74 4.2 18:43:36 42° NNW 18:43:36 42° NNW 18:47:17 10° NE
Cosmos 1743 2.6 18:39:34 10° N 18:43:27 87° E 18:44:32 47° S
Meteor 1-18 Rocket 4.2 18:40:35 23° S 18:44:28 87° W 18:50:19 10° N
STARLINK-39 4.2 18:45:12 41° NW 18:45:12 41° NW 18:48:57 10° NNE
CENTAUR R/B 3.9 18:40:13 10° S 18:45:08 32° ESE 18:50:41 10° NE
STARLINK-1049 4.2 18:45:56 41° NW 18:45:59 41° NW 18:49:56 10° NNE
Okean 1 3.4 18:46:41 56° NW 18:46:41 56° NW 18:50:14 10° N
STARLINK-1023 4.4 18:46:31 38° NW 18:46:37 38° NW 18:50:34 10° NNE
STARLINK-31 4.2 18:46:47 39° NW 18:46:47 39° NW 18:50:34 10° NNE
Cosmos 1980 4.3 18:43:00 10° NNW 18:48:37 59° ENE 18:54:09 10° SE
STARLINK-69 4.4 18:48:36 35° NW 18:48:38 35° NW 18:52:22 10° NNE
CZ-2C R/B 2.4 18:44:12 10° NNE 18:48:47 70° ESE 18:52:18 17° S
STARLINK-21 4.3 18:50:01 37° NW 18:50:08 37° NW 18:53:54 10° NNE
STARLINK-1051 4.3 18:50:43 37° NW 18:50:59 38° NW 18:54:53 10° NNE
STARLINK-70 4.5 18:53:20 32° NW 18:53:35 33° NW 18:57:15 10° NNE
Cosmos 1975 3.3 18:50:01 10° N 18:53:58 59° E 18:57:55 10° SSE
SL-4 R/B 2.7 18:51:56 18° NW 18:54:50 55° NE 18:59:07 10° ESE
STARLINK-76 4.4 18:54:46 33° NW 18:55:05 33° NW 18:58:47 10° NNE
STARLINK-23 4.5 18:56:22 32° NW 18:56:46 32° NW 19:00:26 10° NNE
STARLINK-1057 4.4 18:56:27 27° S 18:58:15 46° SE 19:02:13 10° ENE
Cosmos 1634 Rocket 4.1 18:53:43 10° NNW 18:59:38 50° W 19:05:32 10° SSW
Cosmos 2082 4.2 18:55:40 10° S 19:01:13 59° ESE 19:06:50 10° NNE
Cosmos 389 Rocket 3.3 18:58:00 10° S 19:01:30 52° E 19:05:00 10° NNE
SL-16 R/B 4.5 18:57:33 10° N 19:02:12 26° ENE 19:06:50 10° ESE
STARLINK-1034 4.2 19:01:14 27° SSW 19:03:12 52° SE 19:07:15 10° NE
Cosmos 2333 Rocket 2.8 18:59:26 10° NW 19:04:24 32° WSW 19:09:22 10° SSW
IDEFIX/ARIANE 42P 3.6 19:03:31 10° NNW 19:07:44 26° WNW 19:08:26 25° W
STARLINK-1068 4.0 19:06:02 26° SSW 19:08:11 59° SE 19:12:16 10° NE
Cosmos 1484 Rocket 3.9 19:10:43 10° NNE 19:14:24 43° E 19:18:00 10° S
PAYLOAD A 4.4 19:12:27 10° N 19:17:40 49° WNW 19:22:12 13° SW
STARLINK-1031 3.6 19:15:24 25° SW 19:17:47 84° SE 19:21:58 10° NE
STARLINK-1060 3.7 19:15:36 23° SW 19:18:07 74° SE 19:22:15 10° NE
STARLINK-1030 3.6 19:20:22 21° SW 19:23:05 83° SE 19:27:13 10° NE
CZ-4B R/B 3.5 19:19:24 10° NNE 19:23:35 65° E 19:27:56 10° S
H-2A R/B 2.9 19:20:06 10° NNE 19:24:13 62° E 19:28:10 10° S
Meteor 2-4 Rocket 3.8 19:19:21 10° SSW 19:25:15 78° W 19:31:13 10° N
Chandra Rocket (1) 4.1 19:16:46 17° WSW 19:26:38 43° S 19:31:14 10° ESE
STARLINK-1020 3.6 19:25:10 19° SW 19:28:04 89° NW 19:32:13 10° NE
Cosmos 2237 Rocket 2.2 19:26:23 10° NNW 19:31:59 62° WSW 19:37:34 10° S
ADEOS 4.2 19:28:10 10° N 19:32:53 36° WNW 19:37:33 10° SW
STARLINK-1052 3.5 19:29:58 17° SW 19:33:02 80° NW 19:37:12 10° NE
ATLAS 3B R/B 3.7 19:27:29 10° S 19:33:49 46° ESE 19:40:05 10° NE
Meteor 1-13 Rocket 4.4 19:28:03 10° S 19:33:55 85° E 19:39:42 10° N
USA 238 DEB 4.0 19:31:50 14° SW 19:37:22 49° NW 19:43:59 10° NNE
USA 238 3.9 19:31:55 14° SW 19:37:29 49° NW 19:44:06 10° NNE
STARLINK-1033 3.7 19:39:30 14° WSW 19:42:59 65° NW 19:47:06 10° NE
METEOR-M 4.5 19:39:07 10° NNE 19:44:27 70° ESE 19:49:46 10° S
Cosmos 1048 Rocket 4.0 19:39:34 10° NNW 19:44:54 74° WSW 19:50:14 10° S
Cosmos 2219 4.5 19:41:36 13° W 19:45:04 22° WNW 19:49:31 10° N
Cosmos 1125 Rocket 3.9 19:41:27 10° SW 19:46:28 43° WNW 19:51:32 10° N
BREEZE M DEB (TANK) 4.4 19:44:51 10° NW 19:46:28 15° N 19:48:49 10° NNE
Cosmos 2297 Rocket 3.2 19:44:49 12° WSW 19:49:09 27° WNW 19:53:56 10° N
PSLV R/B 4.4 19:45:33 10° NNE 19:49:39 65° E 19:53:42 10° S
USA 234 4.1 19:44:57 10° S 19:50:24 28° SW 19:55:52 10° WNW
Meteor 1-4 Rocket 2.6 19:48:55 10° SSW 19:52:37 70° W 19:56:23 10° N
Cosmos 2026 Rocket 4.4 19:46:42 10° S 19:52:49 70° E 19:58:53 10° NNE
STARLINK-1024 3.9 19:49:05 11° WSW 19:52:58 52° NW 19:57:02 10° NE
STARLINK-60 3.8 19:50:06 10° NW 19:53:19 54° NE 19:56:31 10° ESE
Nadezhda 4 Rocket 4.2 19:47:36 10° SSW 19:53:40 50° W 19:59:47 10° N
Cosmos 2263 Rocket 4.2 19:49:22 10° SSE 19:54:18 32° ESE 19:59:18 10° NE
Chunghua 1 4.5 19:53:26 10° W 19:57:04 79° S 20:00:47 10° E
Meteor 1-31 Rocket 3.6 19:53:38 10° N 19:57:11 33° WNW 20:00:42 10° SW
Meteor PRIRODA 3.6 19:54:04 10° N 19:57:40 59° WNW 20:01:16 10° SSW
STARLINK-1035 4.0 19:53:58 10° WSW 19:57:58 47° NW 20:02:00 10° NE
ASTRO E2 3.3 19:54:59 10° WSW 19:58:44 43° S 20:02:30 10° ESE
COSMO-SKYMED 1 2.7 19:57:50 10° SSE 20:02:10 84° ENE 20:06:31 10° N
STARLINK-1032 4.2 19:58:59 10° WSW 20:02:56 43° NW 20:06:54 10° NE
SeaSat 1 3.7 20:01:34 10° SSW 20:05:10 20° WSW 20:08:48 10° WNW
NOSS 3-2 (A) 4.3 20:02:10 10° WSW 20:07:08 30° NW 20:12:37 10° NNE
